Regional Weather Roundup
Issued by NWS

Home | Current Version | Previous Version | Text Only | Print | Product List | Glossary Off
Versions: 1 2 3 4 5 6 7 8 9 10 11 12 13 14 15 16 17 18 19 20 21 22 23 24 25 26 27

000
ASUS45 KBOU 261607
RWRCO

WEATHER ROUNDUP FOR COLORADO
NATIONAL WEATHER SERVICE DENVER/BOULDER CO
1000 AM MDT TUE JUL 26 2016

NOTE: "FAIR" INDICATES FEW OR NO CLOUDS BELOW 12000 FEET WITH NO
SIGNIFICANT WEATHER AND/OR OBSTRUCTIONS TO VISIBILITY.

COZ001>005-013-030-031-261700-
...NORTHWEST COLORADO...

CITY           SKY/WX    TMP DP  RH WIND       PRES   REMARKS
CRAIG          FAIR      77  43  29 NE3       30.28F
HAYDEN         FAIR      73  39  29 E6        30.31F
MEEKER         FAIR      76  43  30 VRB5      30.30F
MOUNT WERNER   NOT AVBL
STEAMBOAT SPGS FAIR      63  43  49 CALM      30.34F
WALDEN         FAIR      70  41  35 CALM      30.43S
$$

COZ006>008-011-261700-
...WEST CENTRAL VALLEYS...

CITY           SKY/WX    TMP DP  RH WIND       PRES   REMARKS
GRAND JUNCTION FAIR      82  43  25 SE10      30.18S
MONTROSE       FAIR      76  46  34 NE5       30.28S
EAGLE          SUNNY     68  39  34 CALM      30.37S
RIFLE          FAIR      75  45  34 N3        30.25F
DELTA          FAIR      81  43  25 CALM      30.23F
NUCLA          FAIR     N/A N/A N/A SE5       30.32F
$$

COZ017>023-064>068-261700-
...SOUTHWEST COLORADO...

CITY           SKY/WX    TMP DP  RH WIND       PRES   REMARKS
DURANGO        FAIR      73  50  44 NE6       30.34F
CORTEZ         FAIR      77  49  37 W5        30.28S
PAGOSA SPRINGS FAIR      70  45  40 CALM      30.42F
TELLURIDE      NOT AVBL
WOLF CREEK PAS PTSUNNY   54  43  66 CALM      30.75S
$$

COZ009-010-012-014-032>034-037-058>063-261700-
...CENTRAL COLORADO...

CITY           SKY/WX    TMP DP  RH WIND       PRES   REMARKS
ASPEN          FAIR      67  47  48 N7        30.41R
BUENA VISTA    FAIR      70  41  34 NW5       30.42F
COPPER MTN     FAIR      61  28  29 NW6       30.75S
BERTHOUD PASS  PTSUNNY   52  36  54 N17       30.77S
COTTONWOOD PAS FAIR      68  39  34 CALM      30.57S
GUNNISON       FAIR      63  45  51 CALM      30.46S
KREMMLING      FAIR      63  36  36 E3        30.42F
LEADVILLE      FAIR      62  37  39 CALM      30.56S
MONARCH PASS   FAIR      57  36  44 MISG      30.83F
SALIDA         FAIR      73  42  32 N3        30.46F
SUNLIGHT       FAIR      63  39  42 CALM      30.68S
WILKERSON PASS FAIR      64  32  29 NE6       30.70S
$$

COZ069>075-261700-
...SAN LUIS VALLEY/SANGRE DE CRISTO MOUNTAINS...

CITY           SKY/WX    TMP DP  RH WIND       PRES   REMARKS
ALAMOSA        FAIR      68  50  52 S5        30.40F
LA VETA PASS   FAIR      63  45  51 SW5       30.58F
SAGUACHE       FAIR      72  46  40 S9        30.43F
$$

COZ035-036-038>040-261700-
...NORTHERN COLORADO FRONT RANGE...

CITY           SKY/WX    TMP DP  RH WIND       PRES   REMARKS
DENVER INTL AP PTSUNNY   84  48  28 VRB5      30.16F
DMNS CITY PARK   N/A     83  48  29 SW6       30.15F
AURORA         PTSUNNY   84  45  25 W7        30.18F
FRONT RANGE AP PTSUNNY   86  45  23 W6        30.18S
ERIE MUNI ARPT FAIR      81  48  32 CALM      30.15F
BOULDER MUN AP FAIR      77  50  38 CALM      30.16S
CENTENNIAL     PTSUNNY   84  38  19 VRB3      30.20S
BROOMFIELD     PTSUNNY   79  50  36 S3        30.19F
LONGMONT       FAIR      77  54  44 CALM      30.17S
$$

COZ041-046-047-076>085-087-088-261700-
...PIKES PEAK/PALMER DIVIDE AND SOUTHERN FOOTHILLS...

CITY           SKY/WX    TMP DP  RH WIND       PRES   REMARKS
COLO. SPRINGS  PTSUNNY   72  53  51 CALM      30.27F
A. F. ACADEMY  FAIR      73  51  45 S7        30.28F
SCHRIEVER AFB  NOT AVBL
ELLICOTT       FAIR     N/A N/A N/A S5        30.25F
FALCON         NOT AVBL
FORT CARSON    FAIR      73  55  53 VRB3      30.24F
LIMON          NOT AVBL
MONUMENT HILL  FAIR      79  43  27 NW3       30.32S
TRINIDAD       NOT AVBL
$$

COZ042>045-048>051-090-091-261700-
...NORTHEAST COLORADO...

CITY           SKY/WX    TMP DP  RH WIND       PRES   REMARKS
GREELEY ARPT   FAIR      73  55  53 CALM      30.14F
AKRON          FAIR      80  58  46 S15       30.12F
BURLINGTON     FAIR      79  64  60 S16       30.15F
WRAY           NOT AVBL
STERLING       FAIR      79  63  57 S8        30.08S
HOLYOKE        FAIR      79  68  69 W8G17     30.10S
FORT MORGAN    FAIR      80  55  42 SW6       30.12F
$$

COZ086-089-092>099-261700-
...SOUTHEAST COLORADO...

CITY           SKY/WX    TMP DP  RH WIND       PRES   REMARKS
PUEBLO         FAIR      76  58  53 VRB5      30.16F
LA JUNTA       FAIR      79  60  52 E5        30.14F
LAMAR          FAIR      82  65  56 SE8       30.10F
SPRINGFIELD      N/A     80  64  58 S7        30.16F
$$




USA.gov is the U.S. government's official web portal to all federal, state and local government web resources and services.